246  
NZUS99 KDVN 180810  
HRRRRR  
HOURLY WEATHER ROUNDUP  
NATIONAL WEATHER SERVICE QUAD CITIES IA IL  
300 AM CDT FRI SEP 18 2020  
 
NOTE: "FAIR" INDICATES FEW OR NO CLOUDS BELOW 12,000 FEET WITH  
NO SIGNIFICANT WEATHER AND/OR OBSTRUCTIONS TO VISIBILITY.  
------------------------------------------------------------------  
 
CITY SKY/WX TMP DP RH WIND PRES REMARKS  
BURLINGTON NOT AVBL  
CEDAR RAPIDS CLOUDY 53 39 59 NE12 30.26S  
DAVENPORT CLOUDY 52 43 71 NE8 30.26S  
DUBUQUE FAIR 47 39 74 N7 30.28R WCI 44  
IOWA CITY CLOUDY 54 42 64 NE8 30.28R  
MOLINE CLOUDY 55 45 68 NE6 30.24R  
------------------------------------------------------------------  
THE STATIONS BELOW ARE NOT NWS STATIONS AND ARE NOT SUBJECT TO NWS  
QUALITY CONTROL. SOME STATIONS DO NOT REPORT WEATHER SUCH AS FOG.  
* - STATIONS THAT REPORT TMP AND DP IN WHOLE DEGREES CELSIUS, WHICH  
ARE THEN CONVERTED TO FAHRENHEIT.  
------------------------------------------------------------------  
 
CITY SKY/WX TMP DP RH WIND PRES REMARKS  
CLINTON FAIR 47 44 90 NE6 30.26S WCI 44  
FAIRFIELD * MOCLDY 50 50 100 N9 30.25R WCI 46  
FORT MADISON * FAIR 52 52 100 NE3 30.23R  
FREEPORT FAIR 45 45 99 N5 30.28S WCI 43  
INDEPENDENCE FAIR 46 38 75 N6 30.29S WCI 43  
KEOKUK * FAIR 55 54 94 NE6 30.21S  
MACOMB FAIR 50 49 98 N3 30.23F  
MONTICELLO * FAIR 48 43 81 VRB3 30.28R  
MT PLEASANT * FAIR 52 48 87 N8 30.24R  
MUSCATINE * FAIR 52 46 82 N5 30.26R  
SAVANNA * N/A N/A N/A N/A MISG N/A  
STERLING/R.F. FAIR 52 49 89 N3 30.25S  
VINTON FAIR 52 40 63 N8 30.29R  
WASHINGTON * CLOUDY 52 46 82 N8 30.24S  
------------------------------------------------------------------  
 
 
CLICK HERE TO GO TO PREVIOUS BULLETINS.

The Nexlab IL Page
The Nexlab IA Page
The Nexlab MO Page Main Text Page